Tracking 33744 objects as of 12-Apr-2026
HD Live streaming from Space Station
objects crossing your sky now

EMISAR

Track EMISAR now!
10-day predictions


NORAD ID: 71963
Int'l Code: 2026-067AB
Perigee: 519.2 km
Apogee: 520.0 km
Inclination: 97.4 °
Period: 94.9 minutes
Semi major axis: 6890 km
RCS: Unknown
Launch date: March 30, 2026
Source: Romania (ROM)
Launch site: ()
Your satellite tracking list
Your tracking list is empty




NASA's NSSDC Master Catalog

Two Line Element Set (TLE):
1 71963U 26067AB  26089.50121132 -.00002881  00000+0 -14288-3 0    08
2 71963  97.4481  49.1615 0000600  62.6153 298.4005 15.17814587    14
Source of the keplerian elements: AFSPC